Temperature
18 18 18 18 18 18 18 18 18 18 18 18 18 18 18 18 18 18 18 18 18 18 18 18 18 18 18 18 18 18 18 18 18 18 18 18 18 18 18 18 18 18 18
18 18 18 18 18 18 18 18 18 18 18 18 18 18 18 18 18 18 18 18 18 18 18 18 18 18 18 18 18 18 18 18 18 18 18 18 18 18 18 18 18 18 18
18 18 18 18 18 18 18 17 18 18 18 18 18 18 18 18 18 18 18 18 18 18 18 18 18 18 18 18 18 18 18 18 18 18 18 18 18 18 18 18 18 18 17
18 18 18 18 18 18 17 17 17 18 17 17 18 18 18 18 18 18 18 18 18 18 18 18 18 18 18 18 18 18 18 18 18 18 18 18 17 17 17 17 17 17 17
18 18 18 17 17 17 17 17 17 17 17 17 17 17 17 17 17 17 18 18 18 17 17 17 18 17 17 17 17 17 17 18 18 17 17 17 17 17 17 17 17 17 17
18 18 17 17 17 17 17 17 17 17 17 17 17 17 17 17 17 17 17 17 17 17 17 17 17 17 17 17 17 17 17 17 17 17 17 17 17 17 17 17 17 17 17
18 18 17 17 17 17 17 17 17 17 17 17 17 17 17 17 17 17 17 17 17 17 17 17 17 17 17 17 17 17 17 17 17 17 17 17 17 17 17 17 17 17 17
18 17 17 17 17 17 17 17 17 17 17 17 17 17 17 17 17 17 17 17 17 17 17 17 17 17 17 17 17 17 17 17 17 16 16 16 16 17 16 16 17 16 16
17 17 17 17 17 17 17 17 17 17 17 17 17 17 17 17 17 17 17 17 17 17 16 16 16 16 16 16 16 16 16 16 16 16 16 16 16 16 16 16 16 16 16
17 17 17 17 17 17 17 17 17 17 17 17 17 17 17 17 17 17 16 16 16 16 16 16 16 16 16 16 16 16 16 16 16 16 16 16 16 16 16 16 16 16 16
17 17 17 17 17 17 17 17 17 17 17 17 17 17 17 17 16 16 16 16 16 16 16 16 16 16 16 16 16 16 16 16 16 16 16 16 16 16 16 16 16 16 16
18 17 17 17 17 17 17 17 17 17 17 17 17 17 17 16 16 16 16 16 16 16 16 16 16 16 16 16 16 16 16 16 16 16 16 15 15 15 15 15 15 15 15
18 18 17 17 17 17 17 17 17 17 17 17 17 17 16 16 16 16 16 16 16 16 16 16 16 16 16 16 16 16 16 16 16 16 15 15 15 15 15 15 15 15 15
18 18 17 17 17 17 17 17 17 17 17 17 17 16 16 16 16 16 16 16 16 16 16 16 16 15 15 15 15 15 15 15 15 15 15 15 15 15 15 15 15 14 14
18 18 18 17 17 17 17 17 17 17 17 17 16 16 16 16 16 16 16 16 16 16 16 16 16 15 15 15 15 15 15 15 15 15 15 15 15 15 15 14 14 14 14
18 18 18 18 17 17 17 17 17 17 17 17 16 16 16 16 16 16 16 16 16 15 15 15 15 15 15 15 15 15 15 15 15 15 15 15 14 14 14 14 14 14 14
18 18 18 18 18 17 17 17 17 17 17 17 17 16 16 16 16 16 16 16 15 15 15 15 15 15 15 15 15 15 14 14 14 14 14 14 14 14 14 14 14 14 14
18 18 18 18 18 17 17 17 17 17 17 17 17 16 16 16 16 16 16 16 15 15 15 15 15 15 15 15 15 14 14 14 14 14 14 14 14 14 14 14 14 13 13
19 18 18 18 18 18 17 17 17 17 17 17 16 16 16 16 16 16 16 15 15 15 15 15 15 15 15 14 14 14 14 14 14 14 14 14 14 14 13 13 13 13 13
18 18 18 18 18 17 17 17 17 17 17 17 16 16 16 16 16 16 15 15 15 15 15 15 15 15 14 14 14 14 14 14 14 14 13 13 13 13 13 13 13 13 13
18 18 18 18 18 18 17 17 17 17 17 17 16 16 16 16 16 16 15 15 15 15 15 15 15 14 14 14 14 14 13 13 13 13 13 13 13 13 13 13 13 13 13
18 18 18 18 18 18 17 17 17 17 17 17 16 16 16 16 16 15 15 15 15 15 15 15 14 14 14 14 14 13 13 13 13 13 13 13 13 13 13 13 12 12 12
18 18 18 18 18 17 17 17 17 17 17 16 16 16 16 16 16 16 15 15 15 15 15 14 14 14 14 14 14 13 13 13 13 13 13 13 13 13 12 12 12 12 12
18 18 18 18 18 17 17 17 17 17 17 16 16 16 16 16 16 15 15 15 15 15 15 14 14 14 14 14 14 13 13 13 13 12 12 12 12 12 12 12 12 12 12
18 18 17 17 17 17 17 17 17 17 16 16 16 16 16 15 15 15 15 15 15 15 15 14 14 14 14 14 14 13 13 13 13 12 12 12 12 12 12 12 12 12 12
17 17 17 17 17 17 17 17 17 16 16 16 16 15 15 15 15 15 15 15 14 14 14 14 14 14 14 14 13 13 13 13 13 12 12 12 12 12 12 12 12 11 11
Wind_Speed
2 3 1 4 5 6 7 8 8 9 9 10 11 11 11 11 12 12 11 11 10 9 9 10 10 10 9 9 9 9 9 8 7 7 6 6 6 7 7 6 6 5 6
1 0 3 5 6 7 7 8 9 9 9 10 10 10 11 11 12 12 11 11 11 11 11 11 10 10 9 9 9 9 9 8 7 7 7 6 6 6 6 6 6 6 6
2 2 4 5 6 7 7 8 8 9 9 10 10 10 11 11 11 11 11 11 12 12 12 11 11 11 11 10 9 9 9 8 7 7 7 6 5 6 5 5 6 6 6
3 3 4 6 7 7 8 8 8 8 9 10 10 10 10 11 11 11 11 11 11 12 12 11 11 11 12 11 10 10 10 9 9 8 7 6 5 5 5 5 5 5 5
3 4 4 6 8 8 8 8 8 8 9 9 9 10 10 10 10 11 11 11 11 12 12 12 12 12 12 11 11 10 10 10 10 9 7 6 5 5 5 5 5 5 5
3 4 4 6 8 8 8 8 8 8 9 9 9 9 10 10 11 10 11 11 11 11 12 12 12 12 11 11 11 11 11 10 9 8 7 6 5 5 5 5 5 6 6
3 3 4 6 7 7 8 8 9 9 9 9 9 9 9 10 10 10 10 11 11 11 12 12 12 12 12 12 12 11 11 10 8 7 6 6 5 6 6 5 5 6 6
3 3 4 5 7 7 8 8 9 9 9 9 9 9 10 10 10 10 10 11 11 11 11 12 12 12 13 13 12 12 12 10 8 7 6 6 6 6 6 6 6 6 6
4 4 4 5 6 7 7 8 8 8 9 9 9 9 9 9 9 10 10 11 11 12 12 13 13 13 13 13 13 13 13 12 9 7 6 5 6 6 7 6 7 7 7
3 3 3 4 5 6 6 7 8 8 8 9 9 9 10 10 10 10 10 11 12 12 13 13 13 13 14 14 14 13 13 12 10 9 7 7 8 8 7 7 8 7 7
2 2 2 3 4 5 5 6 7 7 8 9 8 9 9 9 9 9 10 11 11 12 12 13 13 14 13 13 13 13 12 10 9 8 8 9 10 10 10 9 9 9 9
2 1 1 2 2 3 4 5 6 6 7 7 7 7 7 8 8 8 10 11 11 11 11 12 13 12 11 10 11 12 10 10 9 8 9 11 11 11 11 11 10 9 9
3 2 2 2 2 3 3 4 4 5 5 6 6 7 7 7 7 8 8 8 9 10 9 10 10 9 9 9 8 9 10 9 9 8 9 11 11 12 12 11 11 11 10
3 3 2 3 3 3 3 3 3 3 3 3 4 5 6 4 5 5 5 6 6 7 7 7 7 8 9 9 9 9 9 8 9 9 9 11 11 11 11 11 11 11 11
4 4 3 3 4 3 3 2 2 2 2 3 3 4 5 4 3 3 4 5 5 6 6 5 5 6 6 7 8 8 8 8 9 10 10 11 11 11 11 11 11 11 11
5 5 4 4 5 5 3 2 2 2 2 2 2 2 4 4 3 3 3 3 4 5 5 5 5 4 4 5 6 7 7 7 9 10 11 11 12 12 11 11 11 11 11
5 5 5 5 5 5 4 3 3 3 3 2 2 2 3 4 3 3 3 2 3 4 5 5 5 5 5 5 5 6 6 7 8 9 10 10 10 11 12 11 10 10 10
5 5 5 5 5 5 4 3 2 3 3 2 2 3 3 4 4 4 3 2 3 5 4 3 3 4 4 4 4 4 5 5 7 8 9 10 10 10 10 11 11 10 10
6 6 6 5 6 5 4 3 3 3 3 2 2 2 2 3 4 4 3 2 4 4 3 3 3 3 3 3 4 4 4 4 5 6 7 8 9 10 10 11 11 11 10
4 5 6 5 5 5 4 3 2 2 1 2 2 2 3 3 4 4 3 3 4 3 3 3 4 3 3 3 4 5 4 4 4 5 5 6 7 9 9 10 10 10 11
3 4 5 5 5 5 3 3 3 2 1 1 1 1 3 3 4 4 3 3 3 3 3 3 4 4 3 2 3 3 4 4 4 4 4 4 6 7 8 8 8 8 8
4 4 4 5 5 5 4 3 2 2 1 1 0 1 2 3 4 4 3 3 3 3 3 3 3 2 2 2 2 3 2 4 4 4 4 3 4 5 6 7 7 7 7
4 4 5 5 4 4 4 3 4 3 2 2 1 0 1 2 3 3 4 3 3 3 3 3 3 3 2 1 2 3 2 1 2 3 3 4 4 4 4 5 6 6 6
5 4 4 4 4 4 5 5 5 4 3 2 1 0 0 2 2 3 3 3 3 3 3 3 3 2 3 2 1 2 2 3 2 1 3 3 3 3 3 4 4 5 6
3 4 4 4 4 4 5 6 6 4 2 1 1 1 0 1 1 1 2 3 2 2 3 3 2 3 3 3 2 2 2 2 2 2 1 3 3 2 2 3 3 4 5
2 3 3 5 4 4 4 5 6 6 4 3 2 2 1 0 0 0 1 2 2 2 2 3 3 3 3 3 2 2 3 2 2 2 2 1 2 2 2 2 2 3 4
Wind_Direction
278 288 57 82 75 79 82 83 82 81 79 77 77 77 78 79 79 79 79 78 75 80 87 89 89 90 91 93 97 96 93 90 85 85 91 100 104 107 111 112 108 102 102
187 299 89 84 82 81 83 85 85 82 80 79 78 79 80 80 79 78 78 77 76 79 85 84 86 87 86 89 93 93 89 87 82 80 82 79 88 98 107 111 111 104 105
109 79 85 85 85 85 86 87 86 82 81 82 81 81 81 80 80 79 79 77 77 78 81 80 80 82 81 83 86 89 88 86 82 79 71 59 67 80 97 106 105 104 104
110 90 92 90 86 84 86 86 84 84 82 81 80 80 81 82 82 81 79 77 77 77 79 78 77 79 79 81 83 84 84 81 78 72 64 57 58 70 80 93 97 100 97
91 87 92 94 89 86 86 86 85 83 83 83 83 81 81 81 81 81 80 78 78 77 76 75 77 78 77 78 82 83 81 77 69 60 55 54 56 70 74 78 82 88 91
90 85 90 95 90 86 85 84 87 84 82 83 82 82 81 81 80 78 77 79 79 78 77 74 73 74 74 76 78 78 75 71 62 55 51 52 60 75 81 81 81 85 86
100 81 85 92 89 86 85 87 87 86 85 83 82 81 81 81 81 81 77 76 77 77 75 73 73 74 74 75 75 74 71 67 58 52 48 50 59 66 74 81 85 86 86
106 85 78 86 82 84 86 87 86 85 85 85 82 78 77 78 78 77 76 75 77 76 73 73 74 73 74 74 71 69 65 60 54 52 51 52 62 64 65 76 84 86 83
88 80 67 71 75 78 81 82 82 82 81 81 81 78 75 74 74 72 71 74 78 77 74 74 75 74 75 73 68 65 61 54 49 46 51 56 65 65 68 78 85 84 83
75 71 66 68 70 69 73 80 82 81 80 78 78 77 75 71 69 68 68 74 78 78 75 74 73 72 72 69 66 62 56 47 43 42 43 53 59 64 70 78 84 85 85
104 62 67 68 70 74 77 83 81 79 74 71 69 69 67 63 60 61 63 70 75 77 76 74 74 73 71 66 63 58 51 45 42 39 42 54 59 63 68 76 81 81 82
172 163 118 98 87 84 83 76 71 68 65 63 62 62 66 65 61 62 60 64 68 71 73 72 73 69 65 59 56 53 47 43 40 36 42 53 58 61 65 73 78 79 81
185 176 168 152 118 105 85 83 72 72 71 63 61 68 72 66 59 56 54 53 58 62 63 65 64 59 60 59 57 52 46 43 36 33 38 51 57 61 61 66 72 74 80
170 186 178 159 137 128 110 99 95 83 78 71 68 77 79 68 59 57 56 54 58 63 64 63 67 63 64 62 60 55 48 44 37 32 37 50 58 60 60 62 68 74 81
183 190 185 163 153 147 131 128 112 103 93 92 84 84 91 87 73 65 60 62 62 68 71 68 69 67 65 61 59 56 48 46 44 40 38 47 53 56 59 63 65 70 74
189 191 178 166 161 152 153 149 140 133 120 110 106 109 111 107 95 82 70 66 69 77 80 81 77 72 65 65 58 53 49 49 48 44 41 42 45 48 55 60 63 66 70
192 187 173 173 162 158 161 164 150 144 138 133 139 138 130 122 114 103 89 77 81 90 88 80 71 72 70 65 54 51 50 46 46 44 41 41 41 43 49 53 56 62 67
185 181 177 172 159 159 161 157 144 142 140 146 151 148 144 138 131 114 99 88 95 96 92 86 75 74 66 66 57 44 43 40 38 41 42 41 40 39 41 44 46 54 60
183 178 174 167 156 160 154 142 138 132 133 140 142 138 147 149 142 125 113 102 104 94 84 91 78 89 86 71 68 51 38 35 32 38 38 38 39 38 37 36 41 45 50
166 169 171 167 160 149 133 122 114 102 112 114 122 146 150 147 143 127 113 109 112 105 86 88 90 73 88 84 75 59 41 34 38 33 30 34 37 38 39 37 37 38 43
142 154 164 165 163 144 138 146 148 169 181 137 130 161 153 140 138 130 118 111 114 122 123 112 100 86 65 70 73 47 26 32 41 33 28 32 32 33 38 37 36 37 33
163 168 169 173 165 163 163 158 148 142 147 160 122 106 140 132 134 133 129 132 126 122 115 112 109 98 70 67 98 86 28 3 12 24 22 30 26 27 32 32 34 36 33
177 186 182 178 171 169 152 128 108 87 63 44 38 75 78 137 143 140 141 138 138 142 147 147 138 125 126 55 77 122 124 227 324 347 10 23 23 24 20 21 27 30 31
196 183 167 162 161 164 151 148 148 154 169 198 188 185 60 99 121 134 140 141 143 144 156 167 149 140 133 125 72 68 115 148 139 334 344 1 16 21 12 14 12 17 21
189 171 163 151 156 157 160 162 157 157 161 140 121 108 76 34 68 113 135 138 143 153 166 161 139 135 135 142 140 123 96 75 100 147 286 328 353 354 358 357 2 5 9
143 142 148 158 168 162 162 165 165 165 153 140 142 151 139 9 342 71 128 136 155 165 174 168 154 147 143 134 135 138 146 150 170 158 194 272 313 318 334 346 352 348 351
Height
1512 1511 1511 1511 1510 1510 1509 1509 1509 1509 1509 1509 1509 1508 1508 1508 1507 1507 1507 1507 1506 1505 1506 1508 1509 1510 1511 1512 1513 1514 1514 1515 1515 1516 1517 1517 1518 1518 1519 1520 1521 1521 1522
1512 1512 1512 1512 1511 1511 1511 1510 1510 1510 1510 1510 1510 1510 1510 1510 1509 1509 1509 1509 1508 1507 1508 1510 1511 1512 1513 1513 1514 1514 1515 1516 1516 1517 1517 1518 1518 1519 1519 1520 1521 1522 1522
1513 1513 1513 1513 1513 1512 1512 1512 1512 1511 1512 1512 1511 1511 1511 1511 1511 1511 1511 1511 1510 1510 1511 1512 1513 1513 1514 1514 1515 1515 1516 1516 1517 1517 1518 1518 1519 1519 1520 1520 1521 1522 1522
1514 1514 1514 1514 1514 1514 1514 1513 1513 1513 1513 1513 1513 1513 1513 1513 1513 1513 1513 1513 1513 1513 1513 1514 1514 1515 1515 1516 1516 1516 1517 1517 1517 1518 1518 1519 1519 1520 1520 1520 1521 1522 1522
1515 1515 1515 1515 1515 1515 1515 1515 1515 1515 1515 1514 1514 1514 1514 1514 1514 1514 1514 1515 1515 1515 1515 1515 1516 1516 1517 1517 1517 1517 1518 1518 1518 1518 1519 1519 1519 1520 1520 1520 1521 1521 1522
1516 1516 1517 1517 1517 1517 1517 1517 1516 1516 1516 1516 1516 1516 1516 1516 1516 1516 1516 1516 1516 1516 1517 1517 1517 1517 1518 1518 1518 1518 1519 1519 1519 1519 1519 1519 1519 1520 1520 1521 1521 1521 1522
1518 1518 1518 1518 1518 1518 1518 1518 1518 1518 1517 1517 1517 1517 1517 1517 1517 1517 1517 1518 1518 1518 1518 1518 1518 1519 1519 1519 1519 1519 1519 1519 1519 1519 1519 1520 1520 1520 1520 1520 1521 1521 1521
1519 1520 1520 1519 1520 1520 1520 1520 1520 1519 1519 1519 1519 1519 1519 1519 1519 1519 1519 1519 1519 1519 1519 1520 1520 1520 1520 1520 1520 1520 1520 1520 1520 1520 1520 1520 1520 1520 1520 1520 1520 1521 1521
1521 1521 1521 1521 1521 1521 1521 1521 1521 1521 1521 1520 1520 1520 1521 1520 1520 1521 1521 1521 1521 1521 1521 1521 1521 1521 1521 1521 1521 1521 1521 1520 1520 1520 1520 1520 1520 1520 1519 1519 1520 1520 1520
1522 1523 1523 1523 1523 1523 1523 1523 1523 1523 1523 1522 1522 1522 1522 1522 1522 1522 1522 1522 1522 1523 1523 1522 1522 1522 1522 1522 1522 1522 1521 1521 1520 1520 1520 1520 1520 1520 1519 1519 1519 1519 1519
1523 1524 1524 1524 1524 1524 1524 1524 1524 1524 1524 1524 1524 1524 1524 1524 1524 1524 1524 1524 1524 1524 1524 1524 1524 1524 1524 1524 1523 1523 1522 1521 1521 1521 1521 1520 1520 1520 1519 1518 1518 1518 1518
1524 1525 1525 1525 1526 1526 1526 1526 1526 1526 1526 1526 1526 1526 1526 1526 1526 1526 1526 1526 1526 1526 1526 1526 1526 1525 1525 1525 1525 1524 1524 1523 1523 1522 1522 1522 1521 1520 1519 1518 1518 1517 1516
1525 1525 1526 1526 1527 1527 1527 1527 1527 1527 1527 1528 1528 1528 1527 1527 1528 1528 1528 1528 1528 1528 1528 1527 1527 1527 1527 1526 1526 1525 1525 1525 1524 1523 1523 1523 1522 1521 1520 1519 1518 1516 1515
1525 1526 1527 1527 1528 1528 1529 1529 1529 1529 1529 1529 1529 1529 1529 1529 1529 1529 1529 1529 1529 1529 1529 1529 1529 1529 1529 1528 1528 1527 1527 1526 1525 1525 1524 1524 1523 1523 1521 1520 1519 1518 1517
1525 1526 1527 1528 1529 1529 1530 1530 1530 1531 1531 1531 1531 1531 1531 1531 1531 1531 1531 1531 1531 1531 1531 1531 1531 1530 1530 1530 1529 1529 1528 1528 1527 1526 1525 1525 1524 1523 1523 1522 1521 1520 1519
1525 1526 1527 1528 1529 1530 1531 1531 1532 1532 1532 1532 1532 1532 1533 1533 1532 1532 1532 1532 1532 1532 1533 1533 1532 1532 1532 1531 1531 1530 1530 1529 1529 1528 1527 1526 1525 1525 1524 1523 1522 1522 1521
1525 1526 1527 1528 1529 1530 1531 1532 1532 1533 1533 1533 1533 1534 1534 1534 1534 1534 1533 1533 1533 1534 1534 1534 1534 1533 1533 1533 1532 1532 1532 1531 1530 1530 1529 1528 1527 1526 1526 1525 1524 1524 1523
1525 1526 1527 1528 1529 1530 1531 1532 1533 1534 1534 1534 1534 1534 1534 1535 1535 1535 1535 1534 1535 1535 1535 1535 1535 1535 1534 1534 1534 1533 1533 1533 1532 1532 1531 1530 1529 1528 1527 1526 1526 1525 1524
1524 1525 1526 1528 1529 1530 1531 1532 1533 1534 1534 1535 1535 1535 1535 1535 1535 1535 1535 1535 1536 1536 1536 1536 1536 1536 1535 1535 1535 1534 1534 1534 1534 1533 1532 1531 1531 1530 1529 1528 1527 1526 1525
1523 1524 1525 1527 1528 1530 1531 1532 1533 1534 1534 1535 1535 1535 1535 1535 1535 1536 1536 1536 1536 1536 1536 1536 1536 1536 1536 1536 1535 1535 1535 1535 1535 1534 1534 1533 1532 1531 1530 1529 1528 1527 1526
1521 1522 1524 1525 1527 1529 1530 1531 1532 1533 1534 1534 1535 1535 1535 1536 1536 1536 1536 1536 1536 1536 1536 1536 1536 1536 1536 1536 1536 1536 1536 1536 1536 1535 1535 1534 1534 1533 1532 1531 1530 1529 1528
1519 1521 1523 1524 1526 1527 1529 1530 1531 1532 1533 1534 1534 1535 1535 1536 1536 1536 1536 1536 1536 1536 1536 1536 1536 1536 1536 1536 1536 1536 1536 1537 1536 1536 1535 1535 1534 1534 1533 1532 1531 1530 1529
1518 1519 1521 1523 1524 1526 1528 1529 1530 1531 1532 1533 1533 1534 1534 1535 1535 1536 1536 1536 1536 1536 1536 1536 1536 1536 1536 1536 1536 1537 1537 1537 1537 1537 1536 1535 1535 1534 1533 1533 1532 1531 1530
1516 1518 1520 1521 1523 1525 1526 1528 1529 1529 1530 1531 1532 1533 1534 1534 1535 1535 1535 1535 1535 1535 1536 1536 1536 1536 1536 1536 1536 1537 1538 1537 1537 1537 1537 1536 1535 1534 1534 1533 1532 1532 1531
1514 1516 1518 1519 1521 1523 1524 1526 1527 1528 1529 1529 1531 1532 1533 1533 1534 1534 1534 1534 1534 1535 1535 1535 1535 1536 1536 1536 1536 1537 1537 1537 1537 1537 1536 1535 1535 1535 1534 1533 1532 1532 1531
1512 1514 1516 1518 1519 1521 1523 1524 1525 1526 1527 1528 1529 1530 1531 1532 1532 1532 1533 1533 1533 1533 1534 1534 1534 1535 1535 1536 1536 1536 1536 1536 1536 1536 1535 1535 1534 1534 1534 1533 1532 1532 1531